sat.trackr.live / text

‹ back to catalog

STARLINK-32925

NORAD 63091 · 2025-037Q

PAYLOAD ACTIVE UNKNOWN

§ Identity

Operator
Country
US
Launch date
2025-02-23
Launch site
AFWTR
Launch vehicle
Mass (kg)
RCS (m²)

Purposes: comms

External: N2YO · Heavens-Above · Gunter

§ Orbital elements

Epoch: 2026-09-20T15:07:02.802720Z

Period
94.14 min
Inclination
69.9996°
Eccentricity
0.0002880
Mean motion
15.29593420 rev/d
Perigee alt
475.1 km
Apogee alt
479.0 km
Semi-major
6,855.2 km
B*
4.6351e-4
RAAN
220.4919°
Arg perigee
269.2901°
Mean anomaly
90.7944°
Rev number
8,780

§ Raw data

STARLINK-329251 63091U 25037Q   26263.62989355  .00013225  00000+0  46351-3 0  99962 63091  69.9996 220.4919 0002880 269.2901  90.7944 15.29593420 87809

JSON: /api/v1/satellites/63091 · /tle

For live sub-satellite position, see the globe view (requires WebGL).

§ Visibility from observer

Set your observer location to see the next 7 days of passes ≥ 10°. The values pass through the URL so the page stays shareable.

No JS? Fill the form by hand. The geolocation button needs JavaScript.